Weather History for Wilmington, NC

Change the Weather History Date:

Wednesday, February 13, 2013

  Actual Average Record
Temperature  
Mean Temperature 55 °F 48 °F  
Max Temperature 62 °F 60 °F 78 °F (1927)
Min Temperature 48 °F 38 °F 10 °F (1899)
Degree Days  
Heating Degree Days 10 17  
Month to date heating degree days 211 226  
Since 1 July heating degree days 1535 1701  
Cooling Degree Days 0 0  
Month to date cooling degree days 0 0  
Year to date cooling degree days 12 2  
Growing Degree Days 5 (Base 50)    
Moisture  
Dew Point 49 °F    
Average Humidity 85    
Maximum Humidity 93    
Minimum Humidity 77    
Precipitation  
Precipitation 0.64 in 0.13 in 1.74 in (1936)
Month to date precipitation 2.64 1.64  
Year to date precipitation 4.77 5.40  
Snow  
Snow 0.00 in 0.10 in 4.00 in (1899)
Month to date snowfall 0.0 0.2  
Since 1 July snowfall 0.0 1.4  
Snow Depth 0.00 in    
Sea Level Pressure  
Sea Level Pressure 29.78 in    
Wind  
Wind Speed 9 mph (NE)    
Max Wind Speed 23 mph    
Max Gust Speed 30 mph    
Visibility 8 miles    
Events Rain    
T = Trace of Precipitation, MM = Missing Value Source: NWS Daily Summary

Daily Weather History Graph

Daily Weather History Graph

Search for Another Location

Airport:

Trip Planner

Search our weather history database for the weather conditions in past years. The results will help you decide how hot, cold, wet, or windy it might be!

Date:

Astronomy

Feb. 13, 2013 Rise Set
Actual Time 6:58 AM EST 5:53 PM EST
Civil Twilight 6:32 AM EST 6:19 PM EST
Nautical Twilight 6:03 AM EST 6:48 PM EST
Astronomical Twilight 5:34 AM EST 7:18 PM EST
Moon 8:38 AM EST (2/13) 9:40 PM EST (2/13)
Length of Visible Light 11h 46m
Length of Day
10h 55m
Waxing Crescent, 13% of the Moon is Illuminated
Feb 13
Waxing Crescent
Feb 17
First Quarter
Feb 25
Full
Mar 4
Last Quarter
Mar 11
New

Hourly Weather History & Observations

Time (EST) Temp. Dew Point Humidity Pressure Visibility Wind Dir Wind Speed Gust Speed Precip Events Conditions
12:53 AM 48.9 °F 45.0 °F 86% 29.95 in 9.0 mi NNE 5.8 mph - 0.04 in Rain Light Rain
1:53 AM 48.9 °F 45.0 °F 86% 29.89 in 7.0 mi ENE 8.1 mph - 0.09 in Rain Rain
2:53 AM 48.0 °F 45.0 °F 89% 29.87 in 5.0 mi ENE 5.8 mph - 0.14 in Rain Rain
3:22 AM 48.2 °F 46.4 °F 93% 29.86 in 7.0 mi ESE 5.8 mph - 0.02 in Rain Light Rain
3:53 AM 48.0 °F 46.0 °F 93% 29.84 in 10.0 mi East 3.5 mph - 0.04 in Rain Light Rain
4:27 AM 48.2 °F 46.4 °F 93% 29.82 in 1.8 mi ENE 4.6 mph - 0.12 in Rain Heavy Rain
4:36 AM 48.2 °F 46.4 °F 93% 29.81 in 3.0 mi East 8.1 mph - 0.24 in Rain Rain
4:48 AM 48.2 °F 46.4 °F 93% 29.78 in 4.0 mi ESE 9.2 mph - 0.28 in Rain Rain
4:53 AM 48.9 °F 46.9 °F 93% 29.79 in 5.0 mi ESE 11.5 mph - 0.29 in Rain Light Rain
5:01 AM 48.2 °F 46.4 °F 93% 29.80 in 5.0 mi East 8.1 mph 19.6 mph 0.00 in Rain Light Rain
5:09 AM 50.0 °F 46.4 °F 87% 29.80 in 7.0 mi ENE 8.1 mph - 0.00 in Rain Light Rain
5:53 AM 50.0 °F 48.0 °F 93% 29.81 in 10.0 mi ENE 5.8 mph - 0.00 in   Overcast
6:53 AM 50.0 °F 48.0 °F 93% 29.81 in 10.0 mi ENE 5.8 mph - N/A   Overcast
7:01 AM 50.0 °F 48.2 °F 94% 29.79 in 9.0 mi ENE 6.9 mph - 0.00 in Rain Light Rain
7:32 AM 51.8 °F 48.2 °F 88% 29.78 in 4.0 mi East 4.6 mph - 0.02 in Rain Light Rain
7:53 AM 51.1 °F 48.9 °F 92% 29.78 in 9.0 mi ENE 6.9 mph - 0.03 in   Overcast
8:27 AM 51.8 °F 48.2 °F 88% 29.76 in 2.0 mi NE 5.8 mph - N/A   Overcast
8:53 AM 51.1 °F 48.9 °F 92% 29.78 in 3.0 mi North 6.9 mph - N/A   Overcast
9:04 AM 51.8 °F 48.2 °F 88% 29.77 in 2.0 mi North 6.9 mph - N/A   Overcast
9:53 AM 50.0 °F 48.9 °F 96% 29.78 in 3.0 mi North 5.8 mph - N/A   Overcast
10:53 AM 50.0 °F 48.0 °F 93% 29.77 in 10.0 mi North 3.5 mph - N/A   Overcast
11:53 AM 53.1 °F 50.0 °F 89% 29.75 in 10.0 mi Calm Calm - N/A   Overcast
12:53 PM 55.0 °F 52.0 °F 89% 29.71 in 7.0 mi West 3.5 mph - N/A   Overcast
1:53 PM 57.9 °F 55.0 °F 90% 29.70 in 8.0 mi WNW 5.8 mph - N/A   Overcast
2:53 PM 59.0 °F 55.9 °F 90% 29.68 in 9.0 mi SW 6.9 mph - N/A   Overcast
3:53 PM 61.0 °F 57.0 °F 87% 29.66 in 10.0 mi SW 11.5 mph - N/A   Mostly Cloudy
4:08 PM 60.8 °F 57.2 °F 88% 29.67 in 10.0 mi SW 10.4 mph - N/A   Mostly Cloudy
4:53 PM 62.1 °F 55.9 °F 80% 29.67 in 10.0 mi WSW 12.7 mph - N/A   Partly Cloudy
5:53 PM 61.0 °F 55.0 °F 81% 29.71 in 10.0 mi WSW 12.7 mph - N/A   Clear
6:53 PM 59.0 °F 52.0 °F 78% 29.72 in 10.0 mi WSW 13.8 mph - 0.00 in Rain Light Rain
7:53 PM 57.0 °F 50.0 °F 77% 29.73 in 10.0 mi WSW 19.6 mph 29.9 mph 0.00 in Rain Light Rain
8:53 PM 55.0 °F 48.0 °F 77% 29.78 in 10.0 mi West 17.3 mph 25.3 mph 0.00 in Rain Light Rain
9:53 PM 54.0 °F 46.9 °F 77% 29.77 in 10.0 mi West 11.5 mph - 0.01 in   Mostly Cloudy
10:53 PM 53.1 °F 46.9 °F 80% 29.80 in 10.0 mi West 12.7 mph - N/A   Clear
11:53 PM 52.0 °F 46.9 °F 83% 29.83 in 10.0 mi West 9.2 mph - N/A   Overcast